Tiempo cada hora Abano Terme

Hoy, 23 Octubre, Viernes

Tiempo Temperatura Precipitaciones Viento Presión Humedad
00:00 +13°C° 0 mm 0 mps 766 mmHg 81%
01:00 +14°C° 0 mm 1 mps 766 mmHg 82%
02:00 +14°C° 0 mm 1 mps 765 mmHg 83%
03:00 +14°C° 0 mm 1 mps 765 mmHg 85%
04:00 +13°C° 0 mm 1 mps 764 mmHg 86%
05:00 +13°C° 0 mm 1 mps 764 mmHg 86%
06:00 +13°C° 0 mm 1 mps 764 mmHg 86%
07:00 +13°C° 0 mm 1 mps 764 mmHg 87%
08:00 +14°C° 0 mm 1 mps 764 mmHg 84%
09:00 +15°C° 0 mm 1 mps 764 mmHg 82%
10:00 +15°C° 0 mm 1 mps 764 mmHg 80%
11:00 +16°C° 0 mm 1 mps 764 mmHg 78%
12:00 +16°C° 0 mm 1 mps 763 mmHg 77%
13:00 +18°C° 0 mm 1 mps 763 mmHg 75%
14:00 +18°C° 0 mm 1 mps 763 mmHg 76%
15:00 +18°C° 0 mm 1 mps 762 mmHg 77%
16:00 +18°C° 0 mm 1 mps 762 mmHg 78%
17:00 +16°C° 0 mm 1 mps 762 mmHg 80%
18:00 +16°C° 0 mm 2 mps 762 mmHg 81%
19:00 +15°C° 0 mm 2 mps 762 mmHg 83%
20:00 +15°C° 0 mm 2 mps 762 mmHg 83%
21:00 +15°C° 0 mm 2 mps 762 mmHg 83%
22:00 +15°C° 0 mm 2 mps 762 mmHg 83%
23:00 +15°C° 0 mm 1 mps 762 mmHg 85%

Mañana, 24 Octubre, Sábado

Tiempo Temperatura Precipitaciones Viento Presión Humedad
00:00 +15°C° 0 mm 1 mps 761 mmHg 87%
01:00 +14°C° 0 mm 1 mps 761 mmHg 89%
02:00 +14°C° 0 mm 1 mps 761 mmHg 89%
03:00 +14°C° 0 mm 1 mps 761 mmHg 90%
04:00 +13°C° 0 mm 1 mps 761 mmHg 90%
05:00 +13°C° 0.1 mm 1 mps 761 mmHg 91%
06:00 +13°C° 0.1 mm 1 mps 761 mmHg 91%
07:00 +13°C° 0.1 mm 1 mps 761 mmHg 92%
08:00 +14°C° 0.3 mm 1 mps 761 mmHg 88%
09:00 +16°C° 0.3 mm 1 mps 761 mmHg 84%
10:00 +18°C° 0.3 mm 1 mps 761 mmHg 80%
11:00 +19°C° 0.2 mm 1 mps 761 mmHg 77%
12:00 +17°C° 0.2 mm 0 mps 761 mmHg 74%
13:00 +18°C° 0.2 mm 0 mps 761 mmHg 71%
14:00 +20°C° 0 mm 1 mps 761 mmHg 72%
15:00 +20°C° 0 mm 1 mps 761 mmHg 72%
16:00 +20°C° 0 mm 1 mps 761 mmHg 73%
17:00 +19°C° 0.1 mm 1 mps 761 mmHg 78%
18:00 +18°C° 0.1 mm 1 mps 762 mmHg 82%
19:00 +16°C° 0.1 mm 2 mps 762 mmHg 87%
20:00 +16°C° 0 mm 2 mps 762 mmHg 88%
21:00 +16°C° 0 mm 2 mps 763 mmHg 90%
22:00 +15°C° 0 mm 2 mps 763 mmHg 91%
23:00 +15°C° 0 mm 1 mps 763 mmHg 90%

Pasado mañana, 25 Octubre, Domingo

Tiempo Temperatura Precipitaciones Viento Presión Humedad
00:00 +15°C° 0 mm 1 mps 763 mmHg 90%
01:00 +15°C° 0 mm 1 mps 763 mmHg 89%
02:00 +14°C° 0 mm 1 mps 762 mmHg 89%
03:00 +14°C° 0 mm 1 mps 762 mmHg 89%
04:00 +13°C° 0 mm 0 mps 762 mmHg 89%
05:00 +14°C° 0 mm 1 mps 762 mmHg 88%
06:00 +14°C° 0 mm 1 mps 762 mmHg 88%
07:00 +14°C° 0 mm 1 mps 762 mmHg 88%
08:00 +15°C° 0 mm 1 mps 761 mmHg 82%
09:00 +16°C° 0 mm 1 mps 761 mmHg 76%
10:00 +19°C° 0 mm 1 mps 761 mmHg 69%
11:00 +20°C° 0 mm 1 mps 761 mmHg 66%
12:00 +21°C° 0 mm 1 mps 760 mmHg 62%
13:00 +22°C° 0 mm 1 mps 760 mmHg 58%
14:00 +21°C° 0 mm 1 mps 759 mmHg 58%
15:00 +21°C° 0 mm 1 mps 759 mmHg 59%
16:00 +21°C° 0 mm 1 mps 758 mmHg 60%
17:00 +20°C° 0 mm 1 mps 759 mmHg 64%
18:00 +19°C° 0 mm 1 mps 759 mmHg 68%
19:00 +18°C° 0 mm 1 mps 759 mmHg 72%
20:00 +16°C° 0 mm 1 mps 759 mmHg 74%
21:00 +16°C° 0 mm 1 mps 759 mmHg 76%
22:00 +16°C° 0 mm 1 mps 759 mmHg 78%
23:00 +14°C° 0 mm 0 mps 758 mmHg 79%

, 26 Octubre, Lunes

Tiempo Temperatura Precipitaciones Viento Presión Humedad
00:00 +14°C° 0 mm 0 mps 758 mmHg 81%
01:00 +13°C° 0 mm 0 mps 758 mmHg 83%
02:00 +13°C° 0 mm 0 mps 757 mmHg 84%
03:00 +13°C° 0 mm 0 mps 757 mmHg 84%
04:00 +13°C° 0 mm 0 mps 756 mmHg 85%
05:00 +14°C° 0 mm 1 mps 756 mmHg 85%
06:00 +14°C° 0 mm 1 mps 756 mmHg 86%
07:00 +14°C° 0 mm 1 mps 755 mmHg 86%
08:00 +15°C° 0 mm 2 mps 755 mmHg 84%
09:00 +15°C° 0 mm 2 mps 754 mmHg 81%
10:00 +16°C° 0 mm 2 mps 754 mmHg 78%
11:00 +17°C° 0 mm 2 mps 754 mmHg 73%
12:00 +18°C° 0 mm 2 mps 753 mmHg 68%
13:00 +18°C° 0 mm 3 mps 753 mmHg 64%
14:00 +18°C° 0.8 mm 3 mps 752 mmHg 69%
15:00 +17°C° 0.8 mm 4 mps 752 mmHg 74%
16:00 +15°C° 0.8 mm 4 mps 751 mmHg 80%
17:00 +15°C° 1.3 mm 5 mps 751 mmHg 80%
18:00 +15°C° 1.3 mm 5 mps 751 mmHg 81%
19:00 +15°C° 1.3 mm 6 mps 751 mmHg 81%
20:00 +15°C° 1.2 mm 4 mps 751 mmHg 83%
21:00 +14°C° 1.2 mm 3 mps 750 mmHg 85%
22:00 +14°C° 1.2 mm 2 mps 750 mmHg 87%
23:00 +14°C° 5 mm 2 mps 750 mmHg 90%

26 Octubre, Lunes

Tiempo Temperatura Precipitaciones Viento Presión Humedad
00:00 +14°C° 0 mm 0 mps 758 mmHg 81%
01:00 +13°C° 0 mm 0 mps 758 mmHg 83%
02:00 +13°C° 0 mm 0 mps 757 mmHg 84%
03:00 +13°C° 0 mm 0 mps 757 mmHg 84%
04:00 +13°C° 0 mm 0 mps 756 mmHg 85%
05:00 +14°C° 0 mm 1 mps 756 mmHg 85%
06:00 +14°C° 0 mm 1 mps 756 mmHg 86%
07:00 +14°C° 0 mm 1 mps 755 mmHg 86%
08:00 +15°C° 0 mm 2 mps 755 mmHg 84%
09:00 +15°C° 0 mm 2 mps 754 mmHg 81%
10:00 +16°C° 0 mm 2 mps 754 mmHg 78%
11:00 +17°C° 0 mm 2 mps 754 mmHg 73%
12:00 +18°C° 0 mm 2 mps 753 mmHg 68%
13:00 +18°C° 0 mm 3 mps 753 mmHg 64%
14:00 +18°C° 0.8 mm 3 mps 752 mmHg 69%
15:00 +17°C° 0.8 mm 4 mps 752 mmHg 74%
16:00 +15°C° 0.8 mm 4 mps 751 mmHg 80%
17:00 +15°C° 1.3 mm 5 mps 751 mmHg 80%
18:00 +15°C° 1.3 mm 5 mps 751 mmHg 81%
19:00 +15°C° 1.3 mm 6 mps 751 mmHg 81%
20:00 +15°C° 1.2 mm 4 mps 751 mmHg 83%
21:00 +14°C° 1.2 mm 3 mps 750 mmHg 85%
22:00 +14°C° 1.2 mm 2 mps 750 mmHg 87%
23:00 +14°C° 5 mm 2 mps 750 mmHg 90%

27 Octubre, Martes

Tiempo Temperatura Precipitaciones Viento Presión Humedad
00:00 +14°C° 5 mm 2 mps 750 mmHg 92%
01:00 +14°C° 5 mm 2 mps 750 mmHg 95%
02:00 +14°C° 1.5 mm 2 mps 750 mmHg 92%
03:00 +13°C° 1.5 mm 3 mps 750 mmHg 89%
04:00 +13°C° 1.5 mm 3 mps 750 mmHg 86%
05:00 +13°C° 0.4 mm 2 mps 751 mmHg 86%
06:00 +13°C° 0.4 mm 2 mps 751 mmHg 86%
07:00 +13°C° 0.4 mm 1 mps 752 mmHg 86%
08:00 +14°C° 0.3 mm 1 mps 752 mmHg 81%
09:00 +14°C° 0.3 mm 1 mps 753 mmHg 76%
10:00 +15°C° 0.3 mm 2 mps 753 mmHg 71%
11:00 +16°C° 0.1 mm 1 mps 754 mmHg 66%
12:00 +18°C° 0.1 mm 1 mps 754 mmHg 61%
13:00 +18°C° 0.1 mm 1 mps 754 mmHg 56%
14:00 +18°C° 0 mm 1 mps 754 mmHg 58%
15:00 +18°C° 0 mm 1 mps 754 mmHg 59%
16:00 +16°C° 0 mm 0 mps 754 mmHg 61%
17:00 +15°C° 0 mm 0 mps 754 mmHg 64%
18:00 +14°C° 0 mm 0 mps 755 mmHg 68%
19:00 +13°C° 0 mm 0 mps 755 mmHg 71%
20:00 +14°C° 0 mm 1 mps 756 mmHg 73%
21:00 +13°C° 0 mm 1 mps 756 mmHg 74%
22:00 +13°C° 0 mm 1 mps 756 mmHg 76%
23:00 +12°C° 0 mm 1 mps 756 mmHg 76%

28 Octubre, Miércoles

Tiempo Temperatura Precipitaciones Viento Presión Humedad
00:00 +12°C° 0 mm 1 mps 756 mmHg 76%
01:00 +12°C° 0 mm 2 mps 756 mmHg 76%
02:00 +12°C° 0 mm 2 mps 756 mmHg 76%
03:00 +10°C° 0 mm 2 mps 756 mmHg 75%
04:00 +10°C° 0 mm 2 mps 756 mmHg 75%
05:00 +10°C° 0 mm 2 mps 757 mmHg 74%
06:00 +10°C° 0 mm 2 mps 757 mmHg 74%
07:00 +10°C° 0 mm 2 mps 757 mmHg 73%
08:00 +12°C° 0 mm 2 mps 757 mmHg 70%
09:00 +13°C° 0 mm 2 mps 758 mmHg 67%
10:00 +15°C° 0 mm 2 mps 758 mmHg 63%
11:00 +16°C° 0 mm 2 mps 758 mmHg 60%
12:00 +17°C° 0 mm 3 mps 758 mmHg 57%
13:00 +18°C° 0 mm 3 mps 758 mmHg 54%
14:00 +18°C° 0 mm 3 mps 759 mmHg 56%
15:00 +18°C° 0 mm 3 mps 759 mmHg 57%
16:00 +17°C° 0 mm 3 mps 759 mmHg 59%
17:00 +16°C° 0 mm 2 mps 760 mmHg 61%
18:00 +15°C° 0 mm 2 mps 760 mmHg 64%
19:00 +14°C° 0 mm 2 mps 761 mmHg 66%
20:00 +14°C° 0 mm 2 mps 761 mmHg 66%
21:00 +14°C° 0 mm 2 mps 762 mmHg 67%
22:00 +13°C° 0 mm 2 mps 762 mmHg 68%
23:00 +13°C° 0 mm 2 mps 762 mmHg 68%
Mostrar más

Necesitamos Su Consentimiento

Meteoprog y nuestros Proveedores de Servicios pueden almacenar y acceder a sus datos personales como cookies, identificadores de dispositivo u otras tecnologías similares de su dispositivo y procesar dichos datos para personalizar contenido y anuncios, además de ofrecer funciones de redes sociales y analizar el tráfico.

  • Almacenar y/o acceder a información en su dispositivo

    Se puede almacenar o acceder a cookies, identificadores de dispositivo u otra información de su dispositivo para los fines anteriormente indicados.

  • Anuncios y contenido personalizados, medición de anuncios y contenido, percepciones del público, y desarrollo de productos

    Los anuncios y el contenido pueden personalizarse en base a su perfil. Se pueden añadir más datos para personalizar mejor los anuncios y contenidos. Se puede medir el rendimiento de los anuncios y contenidos. Se puede obtener la percepción sobre el público que ha visto los anuncios y contenidos. Dichos datos pueden usarse para desarrollar o mejorar la experiencia del usuario, sistemas y software.

Al hacer clic en ‘Estoy De Acuerdo’ usted permitirá el uso de las cookies, identificadores de dispositivo, balizas web u otras tecnologías similares indicadas. Su configuración puede cambiarse desde el navegador de su dispositivo.

Para ciertos fines, los intereses legítimos pueden ser considerados por encima del consentimiento. Puede leer más sobre ello en nuestra Política de Privacidad y Cookies.